• Processing (Info)

  • MPEC 2013-Y63 : 2013 YE38

    The following Minor Planet Electronic Circular may be linked-to from your own Web pages, but must not otherwise be redistributed electronically.

    A form allowing access to any MPEC is at the bottom of this page.


    Read MPEC 2013-Y62 Read MPEC 2013-Y64


    M.P.E.C. 2013-Y63                                Issued 2013 Dec. 30, 13:09 UT
    
         The Minor Planet Electronic Circulars contain information on unusual
             minor planets and routine data on comets.  They are published
       on behalf of Commission 20 of the International Astronomical Union by the
              Minor Planet Center, Smithsonian Astrophysical Observatory,
                              Cambridge, MA 02138, U.S.A.
    
                 Prepared using the Tamkin Foundation Computer Network
    
                                  MPC@CFA.HARVARD.EDU
                URL http://www.minorplanetcenter.net/    ISSN 1523-6714
    
                                       2013 YE38
    
    Observations:
         K13Y38E* C2013 12 28.25178 02 55 27.56 +36 14 05.1          19.0 VqEY063703
         K13Y38E  C2013 12 28.25832 02 55 28.11 +36 14 30.9          19.2 VqEY063703
         K13Y38E  C2013 12 28.26486 02 55 28.57 +36 14 56.3          19.4 VqEY063703
         K13Y38E  C2013 12 28.27141 02 55 29.14 +36 15 22.3          19.2 VqEY063703
         K13Y38E KC2013 12 28.30195 02 55 31.55 +36 17 22.7          19.3 RoEY063291
         K13Y38E KC2013 12 28.30304 02 55 31.62 +36 17 26.9          19.2 RoEY063291
         K13Y38E KC2013 12 28.30412 02 55 31.71 +36 17 30.9          19.4 RoEY063291
         K13Y38E  C2013 12 28.30604 02 55 31.88 +36 17 38.9          19.2 VqEY063703
         K13Y38E  C2013 12 28.30715 02 55 31.94 +36 17 42.8          19.4 VqEY063703
         K13Y38E  C2013 12 28.30828 02 55 32.03 +36 17 47.9          19.2 VqEY063703
         K13Y38E  C2013 12 28.30942 02 55 32.13 +36 17 51.4          19.5 VqEY063703
         K13Y38E  C2013 12 28.34322 02 55 34.94 +36 20 03.7          18.7 VqEY063703
         K13Y38E  C2013 12 28.34444 02 55 34.97 +36 20 08.8          19.4 VqEY063703
         K13Y38E  C2013 12 28.34567 02 55 35.06 +36 20 12.9          19.6 VqEY063703
         K13Y38E  C2013 12 28.34690 02 55 35.20 +36 20 18.3          19.4 VqEY063703
         K13Y38E KC2013 12 28.78471 02 56 16.31 +36 48 40.2                qEY063J95
         K13Y38E KC2013 12 28.78530 02 56 16.49 +36 48 46.5          20.0 VuEY063958
         K13Y38E KC2013 12 28.79849 02 56 17.53 +36 49 37.4          19.8 VuEY063958
         K13Y38E KC2013 12 28.79885 02 56 17.46 +36 49 34.2                qEY063J95
         K13Y38E KC2013 12 28.80509 02 56 18.01 +36 50 02.3          20.0 VuEY063958
         K13Y38E KC2013 12 28.80893 02 56 18.26 +36 50 12.8          19.6 RqEY063J95
         K13Y38E KC2013 12 29.16330 02 56 48.63 +37 12 24.8          18.9 RqEY063H36
         K13Y38E KC2013 12 29.16665 02 56 48.90 +37 12 36.7          18.9 RqEY063H36
         K13Y38E KC2013 12 29.17001 02 56 49.15 +37 12 49.0          18.9 RqEY063H36
         K13Y38E KC2013 12 29.17335 02 56 49.42 +37 13 01.3          18.9 RqEY063H36
         K13Y38E  C2013 12 29.76076 02 57 42.51 +37 47 58.6          20.0 VoEY063033
         K13Y38E  C2013 12 29.76375 02 57 42.71 +37 48 08.5          20.0 VoEY063033
         K13Y38E KC2013 12 29.82558 02 57 47.82 +37 51 48.3          20.8 VqEY063C77
         K13Y38E KC2013 12 29.83585 02 57 48.57 +37 52 23.3          20.4 VqEY063C77
         K13Y38E KC2013 12 29.84399 02 57 49.25 +37 52 52.7          20.1 VqEY063C77
         K13Y38E  C2013 12 29.85296 02 57 49.90 +37 53 20.3          19.6 VoEY063033
         K13Y38E KC2013 12 29.85509 02 57 50.10 +37 53 30.7          19.9 VqEY063C77
         K13Y38E  C2013 12 29.85596 02 57 50.11 +37 53 30.2          19.6 VoEY063033
         K13Y38E KC2013 12 29.93704 02 57 56.64 +37 58 06.5          19.8 VqEY063C43
         K13Y38E KC2013 12 29.94183 02 57 56.98 +37 58 22.3          19.6 VqEY063C43
         K13Y38E KC2013 12 29.95814 02 57 58.32 +37 59 21.1                qEY063204
         K13Y38E KC2013 12 29.96993 02 57 59.33 +38 00 00.9                qEY063204
         K13Y38E KC2013 12 29.97985 02 58 00.17 +38 00 33.4          20.3 RqEY063204
         K13Y38E  C2013 12 30.13617 02 58 15.52 +38 09 36.8          20.0 RoEY063926
         K13Y38E  C2013 12 30.14409 02 58 16.17 +38 10 02.8          19.8 RoEY063926
         K13Y38E  C2013 12 30.15185 02 58 16.74 +38 10 29.0          19.7 RoEY063926
    
    Observer details:
    033 Karl Schwarzschild Observatory, Tautenburg.  Observer B. Stecklum.  1.34-m
        f/4 Schmidt + CCD.
    204 Schiaparelli Observatory.  Observer L. Buzzi.  0.60-m f/4.64 reflector
        + CCD.
    291 LPL/Spacewatch II.  Observer T. H. Bressi.  1.8-m f/2.7 reflector + CCD.
    703 Catalina Sky Survey.  Observer S. M. Larson.  Measurers A. Boattini,
        E. J. Christensen, A. R. Gibbs, A. D. Grauer, R. E. Hill, J. A. Johnson,
        R. A. Kowalski, S. M. Larson, F. C. Shelly.  0.68-m Schmidt + CCD.
    926 Tenagra II Observatory.  Observers M. Schwartz, P. R. Holvorcem.  0.81-m
        f/7 Ritchey-Chretien + CCD.
    958 Observatoire de Dax.  Observers P. Dupouy, J. B. de Vanssay.  Measurer
        P. Dupouy.  0.43-m f/2.7 reflector + CCD.
    C43 Hoyerswerda.  Observer P. Lindner.  0.30-m f/6.3 Schmidt-Cassegrain + CCD.
    C77 Bernezzo Observatory.  Observer A. Mantero.  0.25-m f/4 reflector + CCD.
    H36 Sandlot Observatory, Scranton.  Observer G. Hug.  0.56-m reflector + CCD.
    J95 Great Shefford.  Observer P. Birtwhistle.  0.40-m f/6.0 Schmidt-Cassegrain
        + CCD.
    
    Orbital elements:
    2013 YE38                                                Earth MOID = 0.0929 AU
    Epoch 2013 Nov. 4.0 TT = JDT 2456600.5                  MPC
    M   4.25782              (2000.0)            P               Q
    n   0.35090291     Peri.  281.06765     +0.83694082     +0.01582502
    a   1.9907256      Node    79.85171     +0.25843539     +0.86969201
    e   0.6112505      Incl.   33.76304     -0.48243259     +0.49334104
    P   2.81           H   20.3           G   0.15           U   8
    Residuals in seconds of arc
    131228 703  0.2-  0.1+    131228 703  0.1-  0.4+    131229 C77  0.3-  0.7-
    131228 703  0.4+  0.1+    131228 J95  0.2-  0.2+    131229 C77  0.2+  0.5+
    131228 703  0.3-  0.4-    131228 958  0.3+  0.6+    131229 033  0.4+  0.4+
    131228 703  0.4+  0.2-    131228 958  0.4+  0.9+    131229 C77  0.1-  0.3+
    131228 291  0.1+  0.2-    131228 J95  0.1+  0.0     131229 033  0.1+  0.1-
    131228 291  0.1-  0.2-    131228 958  0.1-  0.5+    131229 C43  0.2+  0.0
    131228 291  0.1-  0.5-    131228 J95  0.0   0.0     131229 C43  0.5-  0.4-
    131228 703  0.3+  0.4+    131229 H36  0.0   0.1-    131229 204  0.2-  0.4+
    131228 703  0.1-  0.1-    131229 H36  0.2+  0.4-    131229 204  0.2+  0.5+
    131228 703  0.1-  0.6+    131229 H36  0.0   0.4-    131229 204  0.5+  0.4-
    131228 703  0.0   0.4-    131229 H36  0.1+  0.3-    131230 926  0.4-  1.0+
    131228 703  0.5+  0.1+    131229 033  0.0   0.8-    131230 926  0.1+  0.2+
    131228 703  0.4-  0.4+    131229 033  0.5-  1.4-    131230 926  0.2-  0.2+
    131228 703  0.5-  0.3-    131229 C77  0.3+  0.1-
    
    Ephemeris:
    2013 YE38                a,e,i = 1.99, 0.61, 34                  q = 0.7739
    Date    TT    R. A. (2000) Decl.     Delta      r     Elong.  Phase     V
    2013 11 30    00 53 05.2 -78 26 55   0.1849  0.9574    75.7    93.6    19.9
    ...
    2013 12 15    02 34 03.7 +03 09 03   0.1450  1.0885   133.1    41.3    17.9
    ...
    2013 12 23    02 47 41.3 +28 32 33   0.2339  1.1626   135.7    36.2    18.9
    ...
    2013 12 29    02 56 34.6 +37 02 18   0.3167  1.2189   132.2    36.7    19.7
    2013 12 30    02 58 03.1 +38 01 48   0.3311  1.2283   131.6    36.8    19.8
    2013 12 31    02 59 32.1 +38 56 13   0.3457  1.2377   130.9    36.9    20.0
    ...
    2014 01 06    03 08 40.5 +43 02 28   0.4359  1.2942   127.2    37.3    20.6
    ...
    2014 01 14    03 21 46.2 +46 18 56   0.5613  1.3691   122.4    37.3    21.2
    ...
    2014 01 29    03 49 18.7 +49 21 15   0.8079  1.5068   114.0    36.7    22.2
    
    A. U. Tomatic                (C) Copyright 2013 MPC           M.P.E.C. 2013-Y63
    

    Read MPEC 2013-Y62 Read MPEC 2013-Y64


    MPEC number:

    Enter an MPEC number in one of the following forms:

    • 1997-B01 (the full form)
    • J97B01 (the packed version of the full form)
    • B01 (the abbreviated form)